Martinsburg, WV

11:17 PM EDT on September 27, 2016 (GMT -0400)
Eastern W Va Regional-Shepherd

Weather History for KMRB - December, 2013

Change the Weather History Date:

Tuesday, December 10, 2013

  Actual Average Record
Temperature  
Mean Temperature 32 °F 35 °F  
Max Temperature 38 °F 44 °F 70 °F (1966)
Min Temperature 26 °F 27 °F 2 °F (1989)
Degree Days  
Heating Degree Days 33 30  
Month to date heating degree days 270 281  
Since 1 July heating degree days 1361 1351  
Cooling Degree Days 0 0  
Month to date cooling degree days 0 0  
Year to date cooling degree days 1057 895  
Moisture  
Dew Point 26 °F    
Average Humidity 70    
Maximum Humidity 92    
Minimum Humidity 47    
Precipitation  
Precipitation 0.19 in 0.10 in 2.00 in (1938)
Month to date precipitation 2.73 1.03  
Year to date precipitation 33.89 37.02  
Sea Level Pressure  
Sea Level Pressure 30.06 in    
Wind  
Wind Speed 8 mph (WNW)    
Max Wind Speed 22 mph    
Max Gust Speed 27 mph    
Visibility 5 miles    
Events Fog , Snow    
T = Trace of Precipitation, MM = Missing Value Source: NWS Daily Summary

Daily Weather History Graph

Daily Weather History Graph

Search for Another Location

Airport or City:

Trip Planner

Search our weather history database for the weather conditions in past years. The results will help you decide how hot, cold, wet, or windy it might be!

Date:

Astronomy

Dec. 10, 2013 Rise Set
Actual Time 7:21 AM EST 4:48 PM EST
Civil Twilight 6:51 AM EST 5:18 PM EST
Nautical Twilight 6:17 AM EST 5:52 PM EST
Astronomical Twilight 5:44 AM EST 6:24 PM EST
Moon 12:47 PM EST (12/10) 12:39 AM EST (12/10)
Length of Visible Light 10h 27m
Length of Day
9h 27m
First Quarter, 61% of the Moon is Illuminated
Dec 10
First Quarter
Dec 17
Full
Dec 25
Last Quarter
Jan 1
New
Jan 7
First Quarter

Hourly Weather History & Observations

Time (EST) Temp. Windchill Dew Point Humidity Pressure Visibility Wind Dir Wind Speed Gust Speed Precip Events Conditions
12:53 AM 36.0 °F - 28.0 °F 73% 30.06 in 10.0 mi Calm Calm - N/A   Clear
1:53 AM 36.0 °F - 27.0 °F 70% 30.05 in 10.0 mi Calm Calm - N/A   Clear
2:53 AM 37.9 °F 31.5 °F 27.0 °F 65% 30.08 in 10.0 mi West 9.2 mph - N/A   Partly Cloudy
3:53 AM 37.0 °F 32.4 °F 27.0 °F 67% 30.03 in 10.0 mi NNE 5.8 mph - N/A   Overcast
4:53 AM 36.0 °F 32.1 °F 27.0 °F 70% 30.07 in 10.0 mi SW 4.6 mph - N/A   Overcast
5:15 AM 34.0 °F - 28.0 °F 79% 30.05 in 2.5 mi North - - 0.00 in Snow Light Snow
5:19 AM 33.1 °F 23.4 °F 28.9 °F 85% 30.05 in 0.8 mi WNW 13.8 mph - 0.00 in Snow Light Snow
5:28 AM 33.1 °F 25.5 °F 30.0 °F 89% 30.05 in 0.2 mi NW 9.2 mph - 0.00 in Fog , Snow Heavy Snow
5:38 AM 33.1 °F 26.9 °F 30.9 °F 92% 30.05 in 0.2 mi NNW 6.9 mph - 0.00 in Fog , Snow Heavy Snow
5:40 AM 33.1 °F 26.9 °F 30.9 °F 92% 30.05 in 0.5 mi NW 6.9 mph - 0.00 in Fog , Snow Snow
5:53 AM 33.1 °F 28.7 °F 30.9 °F 92% 30.05 in 0.5 mi North 4.6 mph - 0.00 in Fog , Snow Snow
6:13 AM 33.1 °F 30.0 °F 30.9 °F 92% 30.04 in 0.5 mi NE 3.5 mph - 0.00 in Fog , Snow Snow
6:21 AM 33.1 °F - 30.9 °F 92% 30.04 in 0.2 mi Calm Calm - 0.00 in Fog , Snow Heavy Snow
6:33 AM 33.1 °F - 30.9 °F 92% 30.05 in 0.5 mi Calm Calm - 0.00 in Fog , Snow Snow
6:53 AM 32.0 °F 28.7 °F 30.0 °F 92% 30.05 in 0.5 mi NNW 3.5 mph - 0.01 in Fog , Snow Snow
6:58 AM 32.0 °F - 30.0 °F 92% 30.03 in 1.0 mi Calm Calm - 0.00 in Snow Light Snow
7:16 AM 32.0 °F - 28.9 °F 88% 30.03 in 1.2 mi Calm Calm - 0.01 in Snow Light Snow
7:53 AM 32.0 °F - 30.0 °F 92% 30.04 in 1.0 mi Calm Calm - 0.02 in Snow Light Snow
8:00 AM 32.0 °F - 30.0 °F 92% 30.02 in 0.5 mi Calm Calm - 0.00 in Fog , Snow Snow
8:16 AM 32.0 °F - 28.9 °F 88% 30.02 in 0.5 mi Calm Calm - 0.00 in Fog , Snow Snow
8:44 AM 32.0 °F - 28.9 °F 88% 30.00 in 0.8 mi Calm Calm - 0.01 in Snow Light Snow
8:51 AM 32.0 °F - 30.2 °F 93% 30.01 in 1.2 mi Calm Calm - 0.02 in Snow Light Snow
8:53 AM 32.0 °F - 30.0 °F 92% 30.03 in 1.2 mi Calm Calm - 0.02 in Snow Light Snow
9:05 AM 32.0 °F - 28.9 °F 88% 29.99 in 1.8 mi Calm Calm - 0.00 in Snow Light Snow
9:15 AM 32.0 °F - 30.0 °F 92% 29.99 in 2.5 mi Calm Calm - 0.01 in Snow Light Snow
9:23 AM 32.0 °F - 30.0 °F 92% 30.00 in 3.0 mi Calm Calm - 0.01 in   Overcast
9:53 AM 32.0 °F - 30.0 °F 92% 30.02 in 4.0 mi Calm Calm - 0.03 in   Overcast
10:51 AM 33.8 °F 30.8 °F 30.2 °F 87% 30.01 in 2.0 mi NNW 3.5 mph - 0.03 in Snow Light Snow
10:53 AM 33.1 °F 28.7 °F 30.0 °F 89% 30.03 in 2.5 mi NNW 4.6 mph - 0.03 in Snow Light Snow
11:03 AM 33.1 °F 28.7 °F 28.9 °F 85% 30.00 in 4.0 mi NNW 4.6 mph - 0.01 in Snow Light Snow
11:53 AM 34.0 °F 28.8 °F 28.9 °F 82% 30.03 in 10.0 mi WNW 5.8 mph - 0.06 in   Overcast
12:53 PM 36.0 °F 26.7 °F 24.1 °F 62% 30.02 in 10.0 mi West 15.0 mph 20.7 mph 0.02 in   Overcast
1:53 PM 34.0 °F 24.6 °F 21.9 °F 61% 30.02 in 10.0 mi West 13.8 mph 24.2 mph N/A   Clear
2:53 PM 36.0 °F 28.0 °F 21.0 °F 55% 30.04 in 10.0 mi WNW 11.5 mph - N/A   Scattered Clouds
3:53 PM 35.1 °F 27.4 °F 19.0 °F 52% 30.07 in 10.0 mi WNW 10.4 mph 19.6 mph N/A   Overcast
4:53 PM 32.0 °F 22.1 °F 18.0 °F 56% 30.10 in 10.0 mi West 13.8 mph - N/A   Mostly Cloudy
5:53 PM 30.9 °F 20.2 °F 14.0 °F 50% 30.12 in 10.0 mi West 15.0 mph - N/A   Clear
6:53 PM 27.0 °F 18.0 °F 12.9 °F 56% 30.13 in 10.0 mi WSW 9.2 mph - N/A   Clear
7:53 PM 28.9 °F 21.9 °F 12.9 °F 51% 30.15 in 10.0 mi SW 6.9 mph - N/A   Clear
8:53 PM 28.0 °F 18.6 °F 12.9 °F 53% 30.17 in 10.0 mi WSW 10.4 mph - N/A   Clear
9:53 PM 30.9 °F 20.2 °F 12.0 °F 46% 30.18 in 10.0 mi West 15.0 mph - N/A   Clear
10:53 PM 26.1 °F 16.2 °F 10.9 °F 53% 30.22 in 10.0 mi WSW 10.4 mph - N/A   Clear
11:53 PM 28.9 °F 19.8 °F 12.0 °F 49% 30.22 in 10.0 mi West 10.4 mph - N/A   Clear